Home   Weather   Arendal   Past weeks

Flag for Norway Past Weather in Arendal, Norway — Yesterday and Last 2 Weeks

Now
31 °F

Chilly.


Feels Like: 31 °F
Forecast: 33 / 41 °F
Wind: 2 mph from Northwest

Location: Torungen Fyr

Current Time: Jan 22, 2017 at 7:12:09 am

Latest Report: Jan 22, 2017 at 6:00 am


Visibility: N/A

Pressure: 30.29 "Hg

Humidity: 96%

Dew Point: 30 °F

Location of ArendalLocation

Past Weather in Arendal — Graph

°F

Arendal Temperature Yesterday

Maximum temperature yesterday: 45 °F (at 4:00 pm)
Minimum temperature yesterday: 34 °F (at 11:00 pm)
Average temperature yesterday: 40 °F

High & Low Weather Summary for the Past Weeks

 TemperatureHumidityPressure
High50 °F (Jan 19, 2:00 pm)97% (Jan 9, 9:00 am)30.49 "Hg (Jan 9, 9:00 am)
Low22 °F (Jan 16, 5:00 am)46% (Jan 16, 3:00 pm)28.58 "Hg (Jan 11, 1:00 pm)
Average38 °F82%29.93 "Hg
* Reported Jan 7 5:00 am — Jan 22 5:00 am, Arendal, Weather by CustomWeather, © 2017

Note: Actual official high and low records may vary slightly from our data, if they occured in-between our weather recording intervals... More about our weather records

Advertising

Arendal Weather History for the Previous 24 Hours

Scroll right to see more
 ConditionsComfort  
Time TempWeatherWind HumidityBarometerVisibility
5:00 am
Sun, Jan 22
31 °FChilly.2 mph95%30.30 "HgN/A
4:00 am31 °FChilly.2 mph95%30.32 "HgN/A
3:00 am31 °FChilly.2 mph95%30.33 "HgN/A
2:00 am33 °FChilly.2 mph95%30.34 "HgN/A
1:00 am33 °FChilly.2 mph93%30.35 "HgN/A
12:00 am35 °FChilly.1 mph93%30.36 "HgN/A
11:00 pm
Sat, Jan 21
34 °FChilly.3 mph93%30.36 "HgN/A
10:00 pm35 °FChilly.3 mph92%30.36 "HgN/A
9:00 pm36 °FChilly.2 mph92%30.36 "HgN/A
8:00 pm36 °FChilly.3 mph90%30.37 "HgN/A
7:00 pm39 °FChilly.2 mph87%30.36 "HgN/A
6:00 pm40 °FChilly.2 mph85%30.36 "HgN/A
5:00 pm43 °FQuite cool.1 mph80%30.37 "HgN/A
4:00 pm45 °FCool.1 mph71%30.36 "HgN/A
3:00 pm44 °FQuite cool.1 mph76%30.36 "HgN/A
2:00 pm44 °FQuite cool.1 mph78%30.38 "HgN/A
1:00 pm43 °FQuite cool.3 mph86%30.39 "HgN/A
12:00 pm43 °FQuite cool.1 mph76%30.39 "HgN/A
11:00 am41 °FQuite cool.2 mph79%30.39 "HgN/A
10:00 am41 °FQuite cool.3 mph81%30.39 "HgN/A
9:00 am41 °FQuite cool.2 mph82%30.37 "HgN/A
8:00 am42 °FQuite cool.5 mph79%30.37 "HgN/A
7:00 am42 °FQuite cool.5 mph82%30.37 "HgN/A
Weather by CustomWeather, © 2017

See weather overviewHow to use our weather pages